Location: Unspecified
(0.0000°N, 0.0000°E)
Time: 14:24:09
(UTC+00:00)

Explorer 7 - All Passes

Search period start: 21 February 2019 00:00
Search period end: 03 March 2019 00:00
Orbit: 485 x 681 km, 50.3° (Epoch: 20 February)

Date Brightness Start Highest point End Pass type
(mag) Time Alt. Az. Time Alt. Az. Time Alt. Az.
21 Feb - 03:38:40 10° SW 03:43:21 72° NW 03:48:13 10° NNE visible
21 Feb - 15:42:39 10° NW 15:46:23 42° SW 15:49:59 10° SSE daylight
22 Feb - 02:05:00 10° S 02:08:06 18° SE 02:11:16 10° E night (unlit)
22 Feb - 03:44:13 10° WSW 03:48:31 35° NW 03:52:58 10° NNE night (unlit)
22 Feb - 14:08:13 10° N 14:11:12 20° NE 14:14:05 10° E daylight
22 Feb - 15:48:42 10° W 15:51:31 19° SW 15:54:16 10° S daylight
23 Feb - 02:09:03 10° SSW 02:13:14 34° SE 02:17:35 10° ENE night (unlit)
23 Feb - 03:50:28 10° W 03:53:43 18° NW 03:57:02 10° N night (unlit)
23 Feb - 14:12:31 10° NNW 14:16:23 44° NE 14:20:04 10° SE daylight
24 Feb - 02:13:46 10° SSW 02:18:20 71° SE 02:23:08 10° NE night (unlit)
24 Feb - 14:17:29 10° NW 14:21:32 77° SW 14:25:23 10° SSE daylight
25 Feb - 00:42:08 10° SE 00:43:05 11° SE 00:44:04 10° ESE night (unlit)
25 Feb - 02:18:59 10° SW 02:23:28 55° NW 02:28:12 10° NNE night (unlit)
25 Feb - 12:44:21 10° NNE 12:46:14 13° NE 12:48:05 10° ENE daylight
25 Feb - 14:23:01 10° WNW 14:26:39 32° SW 14:30:08 10° S daylight
26 Feb - 00:44:48 10° S 00:48:14 21° SE 00:51:48 10° ENE night (unlit)
26 Feb - 02:24:44 10° WSW 02:28:39 27° NW 02:32:44 10° N night (unlit)
26 Feb - 12:47:56 10° N 12:51:28 27° NE 12:54:51 10° ESE daylight
26 Feb - 14:29:25 10° W 14:31:46 15° SW 14:34:04 10° SSW daylight
27 Feb - 00:49:06 10° SSW 00:53:21 43° SE 00:57:49 10° NE night (unlit)
27 Feb - 02:31:27 10° W 02:33:53 14° NW 02:36:22 10° NNW night (unlit)
27 Feb - 12:52:31 10° NNW 12:56:38 61° NE 13:00:32 10° SE daylight
28 Feb - 00:54:00 10° SW 00:58:28 89° NW 01:03:12 10° NE night (unlit)
28 Feb - 12:57:40 10° NW 13:01:46 56° SW 13:05:39 10° SSE daylight
28 Feb - 23:21:11 10° SSE 23:23:15 13° SE 23:25:23 10° E night (unlit)
01 Mar - 00:59:23 10° WSW 01:03:37 42° NW 01:08:04 10° NNE night (unlit)
01 Mar - 11:23:37 10° N 11:26:29 17° NE 11:29:16 10° E daylight
01 Mar - 13:03:25 10° WNW 13:06:52 25° SW 13:10:11 10° S daylight
01 Mar - 23:24:43 10° S 23:28:22 26° SE 23:32:12 10° ENE night (unlit)
02 Mar - 01:05:24 10° W 01:08:49 21° NW 01:12:21 10° N night (unlit)
02 Mar - 11:27:43 10° NNW 11:31:42 36° NE 11:35:27 10° ESE daylight
02 Mar - 13:10:23 10° WSW 13:11:59 12° SW 13:13:34 10° SSW daylight
02 Mar - 23:29:14 10° SSW 23:33:28 55° SE 23:37:58 10° NE night (unlit)
